Activity Log for Nov, 24 2018

Back to Activity Log Search


Incident Time Nature Address
18F138953 00:00:22 65T SUICIDE THR 105XX MAYSVILLE RD
18F138952 00:00:28 57 STRONG ARM 74XX S ANTHONY BLVD
18F138954 00:08:21 46 DOMESTIC 9XX RIDGEWOOD DR UNIT 16
18F138955 00:12:15 40A AUDIBLE 17XX APPLE GLEN BLVD
18F138957 00:16:07 55 FIGHT SECOND ST & WELLS ST
18F138956 00:19:22 103 UNWANTED 7XX W PACKARD AVE
18F138959 00:24:01 48,36 36XX GRAYSTON AVE
18F138958 00:24:23 46 DOMESTIC 33XX PORTAGE BLVD UNIT 14
18F138962 00:25:53 25HS HIT SKIP 28XX CAMBRIDGE BLVD
18F138961 00:26:32 25HS HIT SKIP WEISSER PARK AVE & E MAPLE GROVE A
18F138963 00:37:43 26 PI ACCIDENT PARNELL AVE & CALIFORNIA RD E
18F138964 00:45:53 48,36 26XX KNIGHTSBRIDGE DR
18F138965 00:49:52 25HS HIT SKIP 106XX CHERRY CREEK RD
18F138966 00:51:00 22RN RUNAWAY 43XX FAIRFIELD AVE
18F138967 00:55:22 101 OPEN DOOR 6XX ARCHER AVE
18F138968 00:55:34 911 HANG UP INDEPENDENCE DR & GOSHEN RD
18F138969 01:03:15 129 2XX E PETTIT AVE
18F138970 01:11:24 48,36 33XX ST JOE CENTER RD
18F138972 01:11:24 63 CONTACT 19XX S LAFAYETTE ST
18F138971 01:11:43 41,36 JEAN DR & MARCIEL DR
18F138973 01:15:55 41,36 12XX E DUPONT RD
18F138974 01:25:28 46 DOMESTIC 25XX PLEASANT AVE
18F138975 01:26:38 25 PD ACCIDENT E WAYNE ST & CLAY ST
18F138976 01:29:50 30 TRAFFIC STOP LIMA RD & LEY RD
18F138977 01:33:58 55 FIGHT 8XX BUCHANAN ST
18F138978 01:40:38 22RN RUNAWAY 12XX GREENE ST
18F138979 01:41:42 25 PD ACCIDENT GOSHEN RD & W WASHINGTON CENTER RD
18F138981 01:48:52 25 PD ACCIDENT 84XX TRIER RD
18F138980 01:51:37 22I JUV INVEST 17XX E TILLMAN RD
18F138982 02:01:18 43 DISTURBANCE 7XX GREENLAWN AVE
18F138983 02:16:21 911 HANG UP 35XX SMITH ST
18F138984 02:23:38 103 UNWANTED 42XX BLUFFTON RD
18F138985 02:24:49 44LM 51XX TRUEMPER WAY APT 2
18F138986 02:25:23 40A AUDIBLE 41XX W FERGUSON RD
18F138987 02:41:18 40A AUDIBLE 41XX W FERGUSON RD
18F138988 02:48:13 63 CONTACT 54XX ILLINOIS RD
18F138989 02:53:30 40A AUDIBLE 69XX WESTLAWN DR
18F138990 02:56:14 43,62 24XX W JEFFERSON BLVD
18F138991 03:06:01 46 DOMESTIC 26XX KENSINGTON BLVD
18F138992 03:21:22 43 DISTURBANCE 10XX N COLISEUM BLVD
18F138993 03:28:46 50IP BURG I/P 80XX PRESTON POINTE DR
18F138994 03:32:56 30 TRAFFIC STOP E STATE BLVD & N COLISEUM BLVD
18F138995 03:36:02 15 ASSIST 8XX SNAPDRAGON CV
18F138996 03:38:14 113 SHOTS FIRED S HANNA ST & E CREIGHTON AVE
18F138997 03:46:26 48 SUSPICIOUS 25XX FARNSWORTH DR
18F138998 03:47:05 40A AUDIBLE 19XX LAKEVIEW DR
18F138999 04:02:27 48,36 61XX BELLE ISLE LN
18F139000 04:05:59 113 SHOTS FIRED 3XX E WOODLAND AVE
18F139001 04:07:21 50JO 12XX W PACKARD AVE
18F139011 04:20:39 44LM 51XX TRUEMPER WAY
18F139002 04:21:25 50,ATTEMPTED 49XX GAYWOOD DR
18F139003 04:30:51 48,36 42XX W FERGUSON RD
18F139004 04:40:56 23,35 VAND VEH 18XX S CALHOUN ST
18F139005 04:48:16 113 SHOTS FIRED 30XX WINTER ST
18F139006 04:55:36 16,97 XX E MAIN ST
18F139007 04:59:32 40A AUDIBLE 7XX E PAULDING RD
18F139008 05:02:52 103 UNWANTED 4XX LASSELLE ST
18F139010 05:05:38 34 TRAFF HAZARD E COLISEUM BLVD & COLDWATER RD
18F139009 05:11:11 30 TRAFFIC STOP S LAFAYETTE ST & E JEFFERSON BLVD
18F139012 05:15:00 48,36 21XX S HARRISON ST
18F139013 05:23:33 30 TRAFFIC STOP S HANNA ST & E CREIGHTON AVE
18F139014 05:24:47 50IP BURG I/P 32XX WENDOVER RD
18F139016 05:28:38 33,34 ARDMORE AVE & COVINGTON RD
18F139015 05:28:51 51,35 6XX E DUPONT RD
18F139017 05:46:20 46,96 E PONTIAC ST & ABBOTT ST
18F139018 06:08:33 40H HOLDUP ALRM 27XX E DUPONT RD
18F139019 06:30:44 63 CONTACT 68XX BAER RD
18F139020 06:38:22 25HS HIT SKIP CLAY ST & E WAYNE ST
18F139021 06:43:58 14S SERVING WAR 4XX W WILLIAMS ST
18F139022 06:46:41 43 DISTURBANCE 9XX E WASHINGTON BLVD
18F139023 06:52:22 24 MISSING PERS 29XX GOSHEN RD
18F139024 06:53:26 46 DOMESTIC 16XX REED RD
18F139025 07:10:19 43 DISTURBANCE 5XX W STATE BLVD
18F139026 07:23:36 48,36 37XX E TILLMAN RD
18F139027 07:25:49 48 SUSPICIOUS 42XX COLDWATER RD
18F139028 07:36:42 48 SUSPICIOUS 76XX CANTERCHASE CT
18F139029 08:02:03 40A AUDIBLE 1XX MURRAY ST
18F139030 08:02:44 40A AUDIBLE 35XX LAKE AVE
18F139031 08:06:04 48 SUSPICIOUS 5XX HAYDEN ST
18F139032 08:06:24 40A AUDIBLE 6XX W BERRY ST
18F139033 08:33:59 39 STOLEN VEHIC 11XX E LEWIS ST
18F139034 08:36:14 46 DOMESTIC 68XX S CALHOUN ST
18F139035 08:43:24 40A AUDIBLE 76XX DISALLE BLVD
18F139036 08:43:44 15 ASSIST 60XX ST JOE RD
18F139038 08:54:16 14 WARRANT 22XX THOMPSON AVE
18F139037 08:55:31 63 CONTACT I 69 AND COLDWATER RD
18F139039 09:08:46 30 TRAFFIC STOP E PAULDING RD & S LAFAYETTE ST
18F139040 09:12:23 51,35 79XX COLDWATER RD
18F139041 09:14:28 23 VANDALISM 33XX W COLISEUM BLVD
18F139043 09:16:33 39 STOLEN VEHIC 61XX WESTHAMPTON DR
18F139042 09:22:29 51 THEFT 14XX TAYLOR ST
18F139044 09:28:30 46 DOMESTIC 37XX WEISSER PARK AVE
18F139048 09:43:33 47 REMOVE ITEMS 14XX FISHER ST
18F139045 09:45:21 40P PANIC ALARM 26XX S LAFAYETTE ST
18F139046 09:46:30 25 PD ACCIDENT ILLINOIS RD & MAGNAVOX WAY
18F139047 09:47:10 33,34 S LAFAYETTE ST & E PETTIT AVE
18F139049 09:54:16 48 SUSPICIOUS FAIRFIELD AVE & W CREIGHTON AVE
18F139051 09:54:57 63 CONTACT 64XX ALVAREZ DR
18F139050 09:57:21 26 PI ACCIDENT 23XX BUTLER RD
18F139052 09:58:49 17 MOTOR CHECK 53XX RENFREW DR
18F139053 10:07:36 63 CONTACT 32XX S CALHOUN ST
18F139054 10:09:37 48 SUSPICIOUS 17XX APPLE GLEN BLVD
18F139056 10:16:01 109 DUMPING 16XX WOODSIDE AVE
18F139057 10:17:16 63 CONTACT 6XX TILLWATER LN
18F139055 10:18:05 30 TRAFFIC STOP BROADWAY & HOME AVE
18F139065 10:25:46 23,35 VAND VEH 43XX PLAZA DR
18F139058 10:29:39 46,96 11XX SOMERSET LN
18F139059 10:31:52 50IP BURG I/P 11XX E LEWIS ST
18F139060 10:36:21 48,36 32XX VANCE AVE
18F139081 10:38:32 108 FOLLOWUP 26XX KENSINGTON BLVD
18F139061 10:46:06 103 UNWANTED 5XX E JEFFERSON BLVD
18F139062 10:55:03 25HS HIT SKIP 26XX INDIANA AVE
18F139063 11:03:33 96 BATTERY 11XX S LAFAYETTE ST
18F139064 11:05:31 39R STOLEN RECO 11XX E LEWIS ST
18F139066 11:06:12 40A AUDIBLE 40XX OPTION PASS
18F139067 11:13:32 25 PD ACCIDENT 57XX COVENTRY LN
18F139068 11:14:39 66V MENTAL VIOL 30XX KENWOOD AVE
18F139069 11:16:09 34 TRAFF HAZARD 63XX WAYNE TRACE
18F139070 11:17:21 108 FOLLOWUP 8XX KINSMOOR AVE
18F139093 11:18:38 50 BURGLARY 11XX ST JOSEPH BLVD
18F139072 11:19:12 16,97 4XX W DEWALD ST
18F139071 11:20:56 1 MEET 101XX ILLINOIS RD
18F139073 11:24:01 51JO 29XX W WASHINGTON CENTER RD
18F139074 11:26:44 33J LOCKED OUT 60XX ST JOE CENTER RD
18F139075 11:35:41 51,35 58XX BLISSFIELD CT
18F139078 11:38:44 15,85 ASST AT O 3XX E WASHINGTON BLVD
18F139076 11:38:45 30 TRAFFIC STOP S CALHOUN ST & E BERRY ST
18F139077 11:39:37 23 VANDALISM 42XX PLAZA DR
18F139079 11:40:10 EMS 27XX W COLISEUM BLVD
18F139080 11:42:51 48 SUSPICIOUS 25XX CORTLAND AVE
18F139094 11:48:27 108 FOLLOWUP 32XX N ANTHONY BLVD
18F139082 11:53:48 18 WORK TRAFFIC COVINGTON RD & ARDMORE AVE
18F139083 11:57:40 16,97 6XX BURNS BLVD
18F139084 12:02:30 22N CHILD NEGLE 26XX FOX AVE
18F139085 12:18:09 40A AUDIBLE 1XX E BERRY ST
18F139086 12:23:30 65T SUICIDE THR 29XX GOSHEN RD
18F139088 12:30:41 59 CUTTING/STAB 35XX HARRIS RD
18F139087 12:31:05 30 TRAFFIC STOP W WASHINGTON BLVD & S CALHOUN ST
18F139089 12:33:51 EMS 10XX STEEPLECHASE CT APT 2C
18F139092 12:43:20 103 UNWANTED 30XX W COLISEUM BLVD
18F139091 12:44:00 22RC RECOVERY 73XX SPRINGHILL DR
18F139090 12:49:37 911 HANG UP S LAFAYETTE ST & E RUDISILL BLVD
18F139096 13:09:22 33J LOCKED OUT E JEFFERSON BLVD & CLAY ST
18F139097 13:16:27 96 BATTERY 36XX E WASHINGTON BLVD
18F139098 13:18:43 48 SUSPICIOUS 4XX E RUDISILL BLVD
18F139099 13:18:56 25 PD ACCIDENT W JEFFERSON BLVD & COVENTRY LN
18F139100 13:26:03 33,34 COLDWATER RD & E COLISEUM BLVD
18F139101 13:26:28 108 FOLLOWUP 11XX TRICK AVE
18F139104 13:35:08 46 DOMESTIC 7XX HIGH ST
18F139102 13:39:08 46,96 29XX KNODE CT
18F139103 13:40:56 34 TRAFF HAZARD 310XX I 69 NB
18F139105 13:49:55 46 DOMESTIC 25XX PLEASANT AVE
18F139106 13:55:35 14 WARRANT TRICK AVE & KENTLAND AVE
18F139107 13:57:31 129 17XX GREY BIRCH RD
18F139110 13:58:35 22I JUV INVEST XX E MAIN ST
18F139108 14:01:24 63Z ZACH CHECK 19XX SEDDLEMEYER AVE
18F139109 14:01:26 43 DISTURBANCE 27XX MANFORD ST
18F139116 14:08:22 44LM 10XX LAKE AVE
18F139111 14:10:52 30 TRAFFIC STOP GOSHEN RD & W COLISEUM BLVD
18F139113 14:12:31 43 DISTURBANCE 41XX LIMA RD
18F139112 14:13:30 15,85 ASST AT O 86XX WAVE CIR
18F139114 14:21:11 46,96 35XX OLIVER ST
18F139115 14:22:02 113 SHOTS FIRED 31XX WELLS ST
18F139117 14:33:02 25 PD ACCIDENT REED RD & TRIER RD
18F139118 14:35:10 26 PI ACCIDENT S CLINTON ST & E SUPERIOR ST
18F139119 14:42:48 48,36 61XX W JEFFERSON BLVD
18F139121 14:48:41 23,35 VAND VEH 64XX EMMONS DR
18F139120 14:51:50 25 PD ACCIDENT 35XX LAKE AVE
18F139122 14:58:35 103 UNWANTED 29XX W WASHINGTON CENTER RD
18F139123 15:07:06 43 DISTURBANCE 4XX W FOURTH ST
18F139124 15:24:09 113 SHOTS FIRED 75XX SOUTHTOWN XING
18F139125 15:25:03 25 PD ACCIDENT TAYLOR ST & BROADWAY
18F139126 15:27:25 25HS HIT SKIP 34XX N CLINTON ST
18F139127 15:30:41 46 DOMESTIC 38XX SENATE AVE
18F139129 15:33:09 51,35 25XX CRESCENT AVE
18F139128 15:33:52 48,36 42XX HESSEN CASSEL RD
18F139132 15:37:40 51 THEFT 13XX ARCHER AVE
18F139131 15:39:49 66V MENTAL VIOL 71XX GARY ST
18F139130 15:39:56 43 DISTURBANCE 30XX SANDARAC LN
18F139137 15:40:18 1 MEET 1XX EDGEKNOLL LN
18F139136 15:43:10 43 DISTURBANCE 31XX CLINTON CT
18F139133 15:43:23 129 108XX E ROSEWOOD CIR
18F139135 15:43:57 129 108XX E ROSEWOOD CIR
18F139134 15:44:29 34 TRAFF HAZARD 12XX SPY RUN AVE
18F139138 15:53:52 25 PD ACCIDENT 66XX LIMA RD
18F139139 15:57:32 96JO 29XX S HANNA ST
18F139140 15:59:48 108 FOLLOWUP 25XX PLEASANT AVE
18F139141 16:04:18 65T SUICIDE THR 15XX BENHAM DR
18F139142 16:04:41 62 PARTY ARMED 67XX S LAFAYETTE ST
18F139143 16:09:25 103 UNWANTED 22XX S HANNA ST
18F139144 16:12:58 30 TRAFFIC STOP 32XX LOWER HUNTINGTON RD
18F139148 16:13:30 1 MEET 6XX E SUTTENFIELD AVE
18F139145 16:15:09 103 UNWANTED 75XX SOUTHTOWN XING
18F139146 16:18:32 34 TRAFF HAZARD E PONTIAC ST & S CLINTON ST
18F139147 16:20:40 17 MOTOR CHECK 117XX MILLSTONE DR
18F139149 16:22:40 30 TRAFFIC STOP E COLISEUM BLVD & N ANTHONY BLVD
18F139151 16:29:53 46 DOMESTIC 43XX BOWSER AVE
18F139150 16:30:38 911 HANG UP 34XX CENTENNIAL DR
18F139152 16:34:25 26HS PI HITSKIP 75XX BLUFFTON RD
18F139154 16:36:50 65T SUICIDE THR 57XX COVENTRY LN
18F139153 16:39:04 25 PD ACCIDENT 19XX FOREST VALLEY DR
18F139155 16:40:49 911 HANG UP 27XX W WASHINGTON CENTER RD LOT 34
18F139156 16:44:11 51 THEFT 18XX W COLISEUM BLVD
18F139157 16:47:20 30 TRAFFIC STOP WELLS ST & LOUISEDALE DR
18F139158 16:54:21 44LM PARK AVE & THOMPSON AVE
18F139159 16:56:47 48,35 CRESCENT AVE & DELAWARE AVE
18F139160 16:57:12 50 BURGLARY 4XX W MAPLE GROVE AVE
18F139161 17:00:50 129 120XX THORNAPPLE CV
18F139162 17:02:30 40A AUDIBLE 3XX W OAKDALE DR
18F139163 17:07:22 51JO 14XX APPLE GLEN BLVD
18F139164 17:08:46 63 CONTACT 6XX TILLWATER LN
18F139165 17:10:46 30 TRAFFIC STOP 62XX GLENVIEW DR
18F139168 17:11:49 25HS HIT SKIP W MAIN ST & JACKSON ST
18F139166 17:15:15 EMS 35XX STILLWATER PL
18F139167 17:16:45 25 PD ACCIDENT ILLINOIS RD & S HADLEY RD
18F139171 17:21:56 50 BURGLARY 31XX BROADWAY
18F139169 17:25:52 30 TRAFFIC STOP YMCA PARK BLVD & E YMCA PARK DR
18F139170 17:29:38 46 DOMESTIC 75XX BLUFFTON RD
18F139172 17:33:17 47 REMOVE ITEMS 27XX W WASHINGTON CENTER RD LOT 23
18F139174 17:43:49 36 OCCUPIED VEH GOSHEN RD & I 69 309 NB ON RAMP
18F139173 17:44:30 30 TRAFFIC STOP HOBSON DR & E STATE BLVD
18F139176 17:46:18 48,35 16XX RICHARDSON ST
18F139175 17:46:34 46 DOMESTIC 17XX E RUDISILL BLVD
18F139179 17:48:51 63 CONTACT 6XX TILLWATER LN
18F139177 17:49:12 48 SUSPICIOUS 99XX E LIMBERLOST TRL
18F139178 17:51:11 911 HANG UP 39XX WEISSER PARK AVE
18F139180 17:55:49 30 TRAFFIC STOP 2XX E RUDISILL BLVD
18F139182 17:56:34 1 MEET 8XX E COLISEUM BLVD
18F139181 17:57:43 51JO 20XX BROADWAY
18F139183 18:00:31 48 SUSPICIOUS 37XX ELMHURST DR
18F139184 18:02:24 30 TRAFFIC STOP AUBURN RD & OLD WALLEN CT
18F139185 18:02:51 46 DOMESTIC 17XX W MAIN ST
18F139186 18:04:08 24 MISSING PERS 61XX BOHDE TRL
18F139187 18:06:37 41 MAN DOWN 12XX NORTHLAWN DR
18F139188 18:06:59 40P PANIC ALARM 43XX WINTER ST
18F139189 18:07:55 26 PI ACCIDENT CRESCENT AVE & E COLISEUM BLVD
18F139190 18:08:23 96 BATTERY XX E MAIN ST
18F139191 18:18:48 25,86 E DOUGLAS AVE & S CLINTON ST
18F139199 18:25:37 46 DOMESTIC 11XX EDGEWATER AVE
18F139193 18:26:09 25 PD ACCIDENT COLDWATER RD & E FERNHILL AVE
18F139195 18:27:17 25 PD ACCIDENT W JEFFERSON BLVD & S HILLEGAS RD
18F139192 18:27:29 1 MEET 33XX SANDPOINT RD
18F139194 18:27:37 25 PD ACCIDENT 25XX CAMBRIDGE BLVD
18F139197 18:27:56 40 ALARM 40XX PARNELL AVE
18F139196 18:28:33 40P PANIC ALARM 59XX HOMESTEAD RD
18F139198 18:30:29 113 SHOTS FIRED 29XX REED ST
18F139207 18:30:37 63 CONTACT 18XX ROSEMONT DR
18F139201 18:30:48 25 PD ACCIDENT S CLINTON ST & E JEFFERSON BLVD
18F139202 18:32:00 25 PD ACCIDENT I 69 AND US 30
18F139200 18:32:02 30 TRAFFIC STOP 84XX AUBURN RD
18F139203 18:33:24 46 DOMESTIC 34XX PLAZA DR
18F139208 18:37:28 1 MEET S CALHOUN ST & W JEFFERSON BLVD
18F139205 18:39:41 48,36 22XX MAPLEWOOD RD
18F139204 18:40:47 28 DUI E WALLEN RD & AUBURN RD
18F139206 18:41:20 40A AUDIBLE 13XX WESTOVER RD
18F139209 18:46:44 46,96 75XX HOPE DR
18F139211 18:46:54 101 OPEN DOOR 30XX W WASHINGTON CENTER RD
18F139210 18:49:43 30 TRAFFIC STOP 36XX W JEFFERSON BLVD
18F139212 18:54:14 23,35 VAND VEH W BRACKENRIDGE ST & S HARRISON ST
18F139213 18:57:09 72 FAIL TO PAY 22XX FAIRFIELD AVE
18F139214 19:01:54 103 UNWANTED 41XX W WASHINGTON CENTER RD
18F139215 19:05:37 HARASSMENT 3XX W MAPLE GROVE AVE
18F139216 19:13:45 15 ASSIST 58XX TURTLE CREEK DR
18F139217 19:16:37 30 TRAFFIC STOP HOBSON RD & STELLHORN RD
18F139218 19:20:28 48 SUSPICIOUS E DOUGLAS AVE & CLAY ST
18F139219 19:20:50 34 TRAFF HAZARD ILLINOIS RD & S HADLEY RD
18F139220 19:27:20 EMS 68XX AUTUMN VIEW DR
18F139221 19:28:03 66V MENTAL VIOL 69XX OMAHA CT
18F139222 19:29:49 25 PD ACCIDENT STELLHORN RD & MAPLE TERRACE PKWY
18F139224 19:30:17 43 DISTURBANCE 12XX E STATE BLVD
18F139223 19:32:16 41 MAN DOWN 1XX E PETTIT AVE
18F139225 19:33:26 25HS HIT SKIP 42XX COLDWATER RD
18F139226 19:39:04 48 SUSPICIOUS 309XX I 69 SB
18F139231 19:46:42 EMS 7XX BROADWAY
18F139227 19:48:56 46 DOMESTIC 13XX WARREN ST
18F139229 19:52:28 46 DOMESTIC 9XX LIBERTY ST
18F139228 19:53:11 33,34 308XX I 69 SB
18F139230 19:53:48 44LP 21XX ST MARYS AVE
18F139232 19:57:10 25 PD ACCIDENT I 69 AND DUPONT RD
18F139233 20:02:45 25 PD ACCIDENT FAIRFIELD AVE & W RUDISILL BLVD
18F139234 20:07:18 22RN RUNAWAY 18XX BEACON ST
18F139236 20:07:25 46 DOMESTIC 35XX HARRIS RD
18F139235 20:08:56 103 UNWANTED 27XX W COLISEUM BLVD
18F139239 20:14:38 63 CONTACT 36XX WINTER ST
18F139237 20:16:00 30 TRAFFIC STOP COLDWATER RD & E COOK RD
18F139238 20:16:43 30 TRAFFIC STOP W COLISEUM BLVD & GOSHEN RD
18F139240 20:18:58 48 SUSPICIOUS RUNNION AVE & SPRING ST
18F139241 20:20:11 43 DISTURBANCE E PAULDING RD & S ANTHONY BLVD
18F139242 20:21:47 50IP BURG I/P 33XX CLERMONT AVE
18F139243 20:23:43 63 CONTACT 55XX TUNBRIDGE XING
18F139244 20:24:57 28 DUI 319XX I 69 SB
18F139245 20:32:49 48 SUSPICIOUS 16XX MAUMEE AVE
18F139246 20:33:32 43 DISTURBANCE 4XX THIRD ST
18F139251 20:33:35 66 MENTALLY ILL 13XX FAY DR
18F139247 20:36:40 22RN RUNAWAY 18XX BEACON ST
18F139248 20:36:56 22RN RUNAWAY 18XX BEACON ST
18F139249 20:37:26 22RN RUNAWAY 18XX BEACON ST
18F139250 20:37:41 EMS 26XX E STATE BLVD
18F139256 20:44:17 22I JUV INVEST 2XX E SUPERIOR ST
18F139252 20:49:18 65T SUICIDE THR 4XX BUCHANAN ST
18F139254 20:55:32 48 SUSPICIOUS 32XX ALEXANDER ST
18F139253 20:55:58 51 THEFT 43XX COLDWATER RD
18F139255 21:00:59 50IP BURG I/P 48XX SCHWARTZ RD
18F139257 21:04:17 96 BATTERY 18XX BEACON ST
18F139258 21:05:18 25 PD ACCIDENT STELLHORN RD & MAYSVILLE RD
18F139259 21:07:36 66 MENTALLY ILL 27XX OLIVER ST
18F139265 21:20:38 1 MEET 61XX BOHDE TRL
18F139260 21:22:00 43 DISTURBANCE 29XX S HANNA ST
18F139261 21:23:28 51JO 103XX MAYSVILLE RD
18F139272 21:25:06 14 WARRANT 6XX E TABER ST
18F139262 21:28:24 103 UNWANTED 104XX MAYSVILLE RD
18F139263 21:31:01 40A AUDIBLE 9XX E COLISEUM BLVD
18F139264 21:32:01 33J LOCKED OUT 3XX E COLISEUM BLVD
18F139269 21:37:57 1 MEET 3XX W MAPLE GROVE AVE
18F139266 21:39:12 48,36 63XX BLUFFTON RD
18F139267 21:48:12 46,96 29XX ALEXANDER ST
18F139268 21:49:23 101 OPEN DOOR 19XX HOBSON RD UNIT 207
18F139270 21:56:53 129 10XX ABBEY PLACE BLVD
18F139271 21:57:00 129 10XX ABBEY PLACE BLVD
18F139273 21:59:40 43 DISTURBANCE 19XX KENTUCKY AVE
18F139275 22:01:04 11C CAGE CAR 42XX COLDWATER RD
18F139274 22:02:00 129 28XX RIDGE VALLEY DR
18F139277 22:02:40 45 NEIGHBORHOOD 22XX SHADY BROOK DR
18F139278 22:03:17 50 BURGLARY 51XX STONEHEDGE BLVD
18F139276 22:06:02 30 TRAFFIC STOP WAKEFIELD AVE & WELWYN CT
18F139279 22:07:55 22RC RECOVERY 18XX BEACON ST
18F139280 22:15:55 30 TRAFFIC STOP SR 3 & STABLEFORD DR
18F139281 22:17:52 20 PROBLEM UNK 46XX E WASHINGTON BLVD
18F139283 22:21:13 103 UNWANTED 2XX E PETTIT AVE
18F139282 22:22:05 30 TRAFFIC STOP WELLS ST & W STATE BLVD
18F139284 22:23:35 30 TRAFFIC STOP 30XX GOSHEN RD
18F139286 22:25:32 26 PI ACCIDENT 9XX N ANTHONY BLVD
18F139285 22:25:53 30 TRAFFIC STOP E WASHINGTON CENTER RD & N CLINTON
18F139287 22:43:26 48 SUSPICIOUS 25XX TERRACE RD
18F139288 22:46:00 22RC RECOVERY CLAY ST & E WASHINGTON BLVD
18F139292 22:54:27 66 MENTALLY ILL 98XX HIDDEN VILLAGE PL
18F139289 22:57:46 96JO 11XX S HARRISON ST
18F139290 22:59:39 43 DISTURBANCE W JEFFERSON BLVD & FAIRFIELD AVE
18F139291 22:59:53 113 SHOTS FIRED 48XX BUELL DR
18F139293 23:06:41 35 PARKED VEHIC GOSHEN RD & I 69 309 NB ON RAMP
18F139295 23:08:21 66V MENTAL VIOL 61XX GRAYMOOR LN
18F139294 23:09:09 30 TRAFFIC STOP GOSHEN RD & W COLISEUM BLVD
18F139296 23:10:13 46 DOMESTIC 44XX REED ST
18F139297 23:15:52 28 DUI 29XX E DUPONT RD
18F139298 23:16:08 23,113 25XX SOUTHWAYNE AVE
18F139299 23:25:01 48,36 WINTER ST & E PONTIAC ST
18F139300 23:29:26 129 58XX S ANTHONY BLVD
18F139301 23:29:45 129 17XX E PAULDING RD
18F139302 23:30:00 129 58XX S ANTHONY BLVD
18F139319 23:32:30 44LM 15XX CINNAMON RD
18F139303 23:32:56 30 TRAFFIC STOP 4XX E WILDWOOD AVE
18F139304 23:33:42 96JO 15XX BARTHOLD ST
18F139316 23:35:40 50,ATTEMPTED 51XX TURBO TRL
18F139307 23:40:32 113 SHOTS FIRED 35XX RODGERS AVE
18F139305 23:40:35 20 PROBLEM UNK 38XX EUCLID AVE
18F139306 23:42:08 113 SHOTS FIRED 35XX HARVESTER AVE
18F139308 23:46:48 44LM 32XX MCARTHUR DR
18F139309 23:49:46 30 TRAFFIC STOP EVARD RD & MAPLECREST RD
18F139310 23:50:34 46,96 45XX SMITH ST
18F139311 23:51:41 48,36 46XX LARKSPUR DR
18F139313 23:53:40 48 SUSPICIOUS 12XX ST MARYS AVE
18F139312 23:55:33 101 OPEN DOOR 37XX S ANTHONY BLVD
18F139315 23:59:41 44LM NEW HAVEN AVE & LUMBARD ST